McAlester, OK

7:33 AM CST on December 09, 2019 (GMT -0600)
McAlester Regional

Weather History for KMLC - September, 2019

Change the Weather History Date:

Wednesday, September 11, 2019

  Actual Average Record
Temperature  
Mean Temperature 82 °F -  
Max Temperature 93 °F 87 °F 100 °F (2000)
Min Temperature 72 °F 64 °F 48 °F (1968)
Cooling Degree Days 16    
Growing Degree Days 32 (Base 50)    
Moisture  
Dew Point 68 °F    
Average Humidity 62    
Maximum Humidity 85    
Minimum Humidity 42    
Precipitation  
Precipitation 0.00 in - - ()
Sea Level Pressure  
Sea Level Pressure 30.06 in    
Wind  
Wind Speed 5 mph (South)    
Max Wind Speed 12 mph    
Max Gust Speed 18 mph    
Visibility 10 miles    
Events      
Averages and records for this station are not official NWS values.
T = Trace of Precipitation, MM = Missing Value Source: NWS Daily Summary

Daily Weather History Graph

Daily Weather History Graph

Search for Another Location

Airport or City:

Astronomy

Sep. 11, 2019 Rise Set
Actual Time 7:03 AM CDT 7:35 PM CDT
Civil Twilight 6:37 AM CDT 8:01 PM CDT
Nautical Twilight 6:07 AM CDT 8:31 PM CDT
Astronomical Twilight 5:37 AM CDT 9:01 PM CDT
Moon 6:41 PM CDT (9/11) 4:35 AM CDT (9/11)
Length of Visible Light 13h 23m
Length of Day
12h 32m
Waxing Gibbous, 95% of the Moon is Illuminated
Sep 11
Waxing Gibbous
Sep 13
Full
Sep 21
Last Quarter
Sep 28
New
Oct 5
First Quarter

Hourly Weather History & Observations

Time (CDT) Temp. Heat Index Dew Point Humidity Pressure Visibility Wind Dir Wind Speed Gust Speed Precip Events Conditions
12:53 AM 79.0 °F - 66.0 °F 64% 30.06 in 10.0 mi South 4.6 mph - N/A   Mostly Cloudy
1:53 AM 75.9 °F - 66.0 °F 71% 30.05 in 10.0 mi SSE 4.6 mph - N/A   Clear
2:53 AM 77.0 °F - 66.9 °F 71% 30.06 in 10.0 mi SSE 4.6 mph - N/A   Clear
3:53 AM 75.9 °F - 66.9 °F 74% 30.06 in 10.0 mi South 4.6 mph - N/A   Clear
4:53 AM 75.0 °F - 66.9 °F 76% 30.07 in 10.0 mi Calm Calm - N/A   Clear
5:53 AM 73.0 °F - 66.9 °F 81% 30.08 in 10.0 mi Calm Calm - N/A   Scattered Clouds
6:53 AM 72.0 °F - 66.9 °F 84% 30.09 in 10.0 mi Calm Calm - N/A   Clear
7:53 AM 73.9 °F - 69.1 °F 85% 30.12 in 10.0 mi Calm Calm - N/A   Clear
8:53 AM 78.1 °F - 70.0 °F 76% 30.12 in 10.0 mi Variable 6.9 mph - N/A   Mostly Cloudy
9:53 AM 81.0 °F 84.4 °F 70.0 °F 69% 30.13 in 10.0 mi SSW 9.2 mph 17.3 mph N/A   Partly Cloudy
10:53 AM 84.0 °F 88.4 °F 70.0 °F 63% 30.13 in 10.0 mi SSW 8.1 mph - N/A   Clear
11:53 AM 87.1 °F 92.0 °F 70.0 °F 57% 30.12 in 10.0 mi South 10.4 mph - N/A   Clear
12:53 PM 90.0 °F 94.5 °F 69.1 °F 50% 30.10 in 10.0 mi SW 10.4 mph - N/A   Scattered Clouds
1:53 PM 89.1 °F 93.7 °F 69.1 °F 52% 30.08 in 10.0 mi SW 10.4 mph - N/A   Mostly Cloudy
2:53 PM 90.0 °F 93.6 °F 68.0 °F 48% 30.05 in 10.0 mi SSW 9.2 mph 18.4 mph N/A   Scattered Clouds
3:53 PM 91.9 °F 94.5 °F 66.0 °F 42% 30.02 in 10.0 mi SSW 11.5 mph - N/A   Partly Cloudy
4:53 PM 91.9 °F 94.5 °F 66.0 °F 42% 30.01 in 10.0 mi South 9.2 mph - N/A   Scattered Clouds
5:53 PM 91.0 °F 94.3 °F 66.9 °F 45% 29.99 in 10.0 mi Variable 6.9 mph - N/A   Partly Cloudy
6:53 PM 89.1 °F 92.9 °F 68.0 °F 50% 29.99 in 10.0 mi South 4.6 mph - N/A   Partly Cloudy
7:53 PM 84.9 °F 87.1 °F 66.0 °F 53% 30.00 in 10.0 mi SSE 4.6 mph - N/A   Clear
8:53 PM 84.0 °F 86.3 °F 66.0 °F 55% 30.01 in 10.0 mi SSE 5.8 mph - N/A   Clear
9:53 PM 82.0 °F 84.1 °F 66.0 °F 58% 30.02 in 10.0 mi SE 4.6 mph - N/A   Clear
10:53 PM 79.0 °F - 66.9 °F 66% 30.04 in 10.0 mi North - - N/A   Clear
11:53 PM 81.0 °F 83.8 °F 68.0 °F 65% 30.03 in 10.0 mi South 6.9 mph - N/A   Clear